Temperature
20 20 19 19 19 19 19 18 18 18 18 18 17 17 17 17 17 17 17 17 17 17 16 16 16 16 16 16 16 16 16 16 15 15 15 15 14 14 14 14 14 14 14
20 20 19 19 19 19 18 18 18 18 18 17 17 17 17 17 17 17 17 17 17 16 16 16 16 16 16 16 16 16 16 15 15 15 15 14 14 14 14 14 14 14 13
20 20 19 19 19 18 18 18 18 18 17 17 17 17 17 17 16 17 16 16 16 16 16 16 16 16 16 16 15 15 15 15 15 15 14 14 14 14 14 13 13 13 13
20 19 19 19 19 18 18 18 18 17 17 17 17 16 16 16 16 16 16 16 16 16 16 16 16 16 15 15 15 15 15 15 15 14 14 14 14 13 13 13 13 13 13
20 19 19 19 18 18 18 17 17 17 17 17 16 16 16 16 16 16 16 16 15 15 15 15 15 15 15 15 15 15 15 15 14 14 14 14 13 13 13 13 13 13 12
20 19 19 19 18 18 18 17 17 17 17 16 16 16 16 16 16 16 15 15 15 15 15 15 15 15 15 15 14 14 14 14 14 14 14 13 13 13 13 13 13 12 12
19 19 19 18 18 18 18 17 17 17 16 16 16 16 16 16 15 15 15 15 15 15 15 14 14 14 14 14 14 14 14 13 13 13 13 13 13 13 13 13 12 12 12
19 19 19 18 18 18 17 17 17 17 16 16 16 16 15 15 15 15 15 15 15 14 14 14 14 14 14 14 14 13 13 13 13 13 13 13 13 13 12 12 12 12 12
19 19 18 18 18 18 17 17 17 16 16 16 16 16 15 15 15 15 15 15 14 14 14 14 14 14 14 13 13 13 13 13 13 13 13 13 12 12 12 12 12 12 12
19 18 18 18 18 18 17 17 17 16 16 16 16 16 15 15 15 15 14 14 14 14 14 14 14 13 13 13 13 13 13 13 13 12 12 12 12 12 12 12 12 12 12
18 18 18 17 17 17 17 17 17 16 16 16 16 15 15 15 15 15 14 14 14 14 14 14 14 13 13 13 13 13 13 13 12 12 12 12 12 12 12 12 12 12 12
18 18 17 17 17 17 17 16 16 16 16 16 15 15 15 15 15 14 14 14 14 14 14 13 13 13 13 13 13 13 12 12 12 12 12 12 12 12 12 12 11 11 11
17 17 17 17 17 16 16 16 16 16 16 15 15 15 15 15 14 14 14 14 14 14 14 13 13 13 13 13 12 12 12 12 12 12 12 12 12 12 12 12 11 11 11
17 17 17 16 16 16 16 16 15 15 15 15 15 15 14 14 14 14 14 14 13 13 13 13 13 13 13 12 12 12 12 12 12 12 12 12 12 12 11 11 11 11 11
17 17 16 16 16 16 16 15 15 15 15 15 15 15 14 14 14 14 14 13 13 13 13 13 13 12 12 12 12 12 12 12 12 12 12 12 12 11 11 11 11 11 11
16 16 16 16 15 15 15 15 15 14 14 14 14 14 14 14 14 14 13 13 13 13 12 12 12 12 12 12 12 12 12 12 12 11 11 11 11 11 11 11 11 11 11
16 16 16 15 15 15 15 15 15 14 14 14 14 14 14 14 13 13 13 13 12 12 12 12 12 12 12 12 11 11 11 11 11 11 11 11 11 11 11 11 11 11 11
16 15 15 15 15 15 15 15 14 14 14 14 14 14 13 13 13 13 13 12 12 12 12 12 12 11 11 11 11 11 11 11 11 11 11 11 11 11 11 11 11 11 11
15 15 15 15 15 15 14 14 14 14 14 14 14 13 13 13 13 12 12 12 12 12 11 11 11 11 11 11 11 11 11 11 11 11 11 11 11 11 11 10 10 10 10
15 15 15 15 14 14 14 14 14 14 13 13 13 13 13 13 12 12 12 12 12 11 11 11 11 11 11 11 11 11 10 11 10 10 11 10 10 10 10 10 10 10 10
15 15 14 14 14 14 14 14 13 13 13 13 13 13 13 12 12 12 12 12 11 11 11 11 11 11 11 10 10 10 10 10 10 10 10 10 10 10 10 10 10 10 10
14 14 14 14 14 14 13 13 13 13 13 13 13 12 12 12 12 12 12 12 11 11 11 11 11 10 10 10 10 10 10 10 10 10 10 10 10 9 9 9 9 9 9
14 14 14 14 14 13 13 13 13 13 13 13 12 12 12 12 12 12 11 11 11 11 10 10 10 10 10 10 10 10 10 10 10 9 9 9 9 9 9 9 9 9 9
14 14 14 13 13 13 13 13 13 13 12 12 12 12 12 11 11 11 11 11 10 10 10 10 10 10 10 10 10 9 9 9 9 9 9 9 9 9 9 9 9 9 8
13 13 13 13 13 13 13 13 12 12 12 12 12 12 11 11 11 11 10 10 10 10 10 9 9 9 9 9 9 9 9 9 9 9 9 9 9 8 8 8 8 8 8
13 13 13 13 13 13 13 12 12 12 12 12 12 11 11 11 10 10 10 10 10 9 9 9 9 9 9 9 9 9 9 8 8 8 8 8 8 8 8 8 8 8 8
Wind_Speed
7 6 5 5 5 5 4 4 3 2 2 2 2 2 2 1 1 1 1 1 1 1 1 1 0 0 0 0 1 2 2 3 2 1 0 0 1 2 2 3 2 2 3
7 7 6 5 5 4 4 3 3 3 2 2 2 2 2 1 1 2 2 1 1 1 0 1 0 1 1 1 1 1 2 2 3 3 1 0 1 1 2 2 2 2 2
7 7 6 5 5 5 4 3 3 3 2 2 2 2 2 1 1 2 2 2 2 2 1 1 1 2 1 1 1 1 1 2 2 3 2 1 1 1 2 1 1 1 2
7 7 7 6 6 5 4 4 3 3 3 3 2 2 2 1 1 1 1 2 2 1 1 1 1 2 2 2 2 2 2 3 3 3 2 1 1 1 2 1 1 1 1
8 8 7 6 5 5 4 4 3 3 4 3 3 2 1 1 1 1 2 2 2 2 2 1 1 2 3 2 2 2 3 3 3 3 2 1 1 1 1 1 1 0 1
8 8 7 6 5 5 5 4 3 3 3 3 3 2 2 2 2 3 3 2 2 3 2 1 1 2 2 3 3 4 5 4 4 3 2 3 2 2 2 2 2 1 1
7 7 7 6 6 6 6 4 4 4 3 3 3 3 3 3 3 3 3 3 3 3 3 2 2 1 2 1 2 2 1 3 5 5 5 5 4 4 4 3 3 3 3
7 7 7 7 7 6 5 5 5 4 4 4 4 4 3 3 3 4 3 2 2 3 3 4 4 2 2 3 3 1 0 1 3 4 5 5 5 5 6 5 5 2 0
6 7 7 7 7 6 6 6 5 4 4 4 3 4 4 4 4 5 4 2 2 2 2 3 4 3 4 4 3 2 1 2 2 3 5 6 6 6 6 4 3 3 1
5 6 6 6 6 7 7 5 4 4 4 4 3 4 4 4 5 5 6 3 2 2 2 3 5 5 5 5 4 4 3 3 1 0 1 2 3 4 6 6 6 5 2
3 4 4 4 4 5 5 4 4 4 3 3 3 3 4 5 5 6 6 4 4 3 3 3 4 7 7 7 6 5 6 5 3 2 2 2 1 2 3 4 5 6 4
4 3 2 2 2 2 3 3 3 4 4 4 3 4 3 4 5 5 7 7 5 4 4 4 4 7 7 6 5 6 6 4 2 2 2 3 3 3 4 4 6 6 6
4 3 3 2 2 2 3 3 2 3 3 4 4 4 4 3 4 6 6 6 7 5 5 6 6 7 6 5 6 7 5 3 3 3 4 5 4 4 3 2 2 3 3
4 3 3 3 3 3 3 3 4 4 4 4 4 4 4 3 3 3 4 4 5 4 3 4 6 6 5 4 4 4 4 4 5 5 5 4 3 3 3 3 3 3 2
3 3 3 3 3 3 3 3 4 5 6 6 5 4 4 5 7 7 5 4 4 4 3 1 1 1 2 2 3 3 3 3 4 4 4 4 3 4 4 3 3 3 3
4 4 3 3 3 3 3 2 3 4 5 6 7 6 5 6 6 7 7 7 6 5 4 3 3 4 5 5 5 5 4 5 5 5 5 5 5 5 4 3 3 4 4
5 5 4 4 4 4 4 4 3 3 3 2 4 5 6 5 5 6 7 6 6 6 4 4 4 5 5 5 5 5 5 6 5 5 5 5 5 5 4 4 4 4 4
5 6 5 4 4 4 5 5 4 4 2 2 2 3 4 4 4 4 5 3 2 3 4 4 5 5 4 5 5 5 5 4 4 5 5 5 5 5 5 5 5 5 5
5 5 4 4 4 4 4 4 4 4 4 3 2 2 2 2 2 3 4 3 3 4 4 4 4 4 4 4 4 4 4 4 4 4 4 5 5 5 5 5 5 7 5
4 5 4 4 3 3 3 4 4 4 4 4 4 3 2 1 1 2 3 3 4 4 4 4 4 4 4 4 4 3 3 3 4 4 4 4 4 4 5 6 6 6 6
3 3 4 3 4 4 4 4 4 4 4 4 5 5 6 4 4 4 4 5 5 5 5 5 4 4 4 3 3 3 4 4 4 4 4 4 4 4 4 5 5 5 5
2 3 3 4 4 4 4 4 4 4 5 5 3 3 6 4 4 4 4 5 5 5 5 4 4 4 4 4 4 4 4 4 4 4 4 4 4 4 4 4 4 4 5
3 3 3 4 4 5 4 4 4 4 4 4 4 3 4 4 4 4 5 4 4 4 4 4 4 4 4 4 4 4 4 5 5 4 4 5 4 4 4 5 5 5 5
3 3 3 3 3 3 4 4 3 4 4 4 4 4 4 4 4 4 4 3 3 3 3 3 4 5 6 4 4 5 5 5 4 4 4 5 5 4 4 4 5 5 5
3 3 3 3 3 3 3 3 3 3 3 3 3 3 3 3 3 3 3 3 3 3 4 4 3 4 5 5 5 5 6 6 5 4 3 3 4 4 4 5 5 5 5
2 2 2 2 2 3 3 3 3 3 2 2 2 3 3 3 3 3 3 2 3 3 3 3 3 4 5 5 6 6 6 6 6 5 4 3 4 4 4 4 5 5 5
Wind_Direction
181 180 171 162 160 151 154 162 162 156 151 148 156 155 152 150 149 138 165 156 162 275 286 152 239 210 142 255 122 126 136 144 165 230 188 100 86 83 83 97 99 105 120
181 169 166 160 158 159 164 168 161 156 153 149 147 152 162 164 164 163 180 165 161 180 238 110 244 103 78 63 100 113 135 143 149 159 187 128 101 139 116 109 95 92 125
172 166 164 162 164 174 176 167 156 151 147 139 137 148 169 179 169 176 177 173 168 172 155 137 152 116 103 99 107 113 123 122 129 144 165 157 88 78 74 65 85 70 112
169 169 171 177 178 181 174 166 163 158 155 158 154 161 172 170 149 155 147 147 144 143 137 125 118 133 149 138 127 133 126 114 116 126 128 116 110 77 90 83 41 21 59
169 172 177 179 178 169 167 169 170 168 171 166 158 169 174 166 172 150 151 143 146 134 115 117 119 128 141 154 151 151 139 132 130 132 139 123 122 122 183 186 147 69 4
169 174 173 171 171 171 175 173 176 183 182 170 179 185 188 210 188 162 153 149 158 159 159 168 146 120 140 142 149 162 164 160 165 161 169 175 203 201 187 174 159 137 258
169 172 170 170 174 185 188 183 191 199 191 185 196 189 197 223 199 173 164 167 175 183 179 180 182 158 148 145 141 136 173 191 183 175 183 198 197 201 184 183 188 183 201
170 175 177 182 186 190 189 195 202 199 195 199 203 197 200 231 208 183 180 175 188 192 187 182 174 184 197 172 154 143 224 251 215 194 196 206 205 200 193 190 189 176 178
177 184 187 187 188 192 199 204 201 193 200 204 199 198 203 224 212 198 181 173 183 212 213 196 184 187 202 174 153 167 207 286 273 211 208 214 215 204 184 152 143 140 191
189 190 188 187 190 199 204 201 195 195 206 202 210 212 204 214 221 209 189 181 189 217 236 219 200 195 199 183 176 183 205 239 241 296 265 247 234 218 195 180 174 169 173
174 169 179 188 196 201 198 193 189 193 192 200 220 230 220 219 218 205 188 187 198 211 227 236 229 207 204 201 194 202 219 218 212 210 227 248 251 233 217 200 188 178 178
140 145 163 176 190 193 191 193 188 186 194 212 225 242 244 235 220 214 201 200 196 203 223 230 228 216 212 213 216 227 221 205 190 197 213 228 230 232 231 215 208 206 203
149 163 182 186 200 192 190 191 196 202 204 218 221 233 247 249 242 225 214 216 212 211 223 221 223 225 222 227 232 226 212 199 195 209 223 232 230 225 217 215 217 209 217
172 188 192 194 208 206 198 192 198 211 215 220 222 229 242 246 242 235 231 231 232 232 233 227 222 222 220 228 241 239 226 215 208 217 224 231 223 211 208 198 198 193 198
189 204 208 210 213 215 216 217 215 219 213 210 219 215 221 238 238 219 209 218 219 222 208 201 192 197 223 240 244 240 233 225 227 231 229 230 225 217 221 206 190 179 192
198 207 212 222 225 217 213 242 252 240 246 225 224 218 228 235 230 214 215 218 212 195 174 200 217 218 222 228 234 240 234 231 233 230 226 221 221 217 216 207 193 194 206
206 211 213 216 214 211 209 214 242 281 301 277 255 237 227 226 219 213 212 214 208 185 195 215 221 228 233 232 232 234 238 236 228 224 227 224 222 216 206 208 206 206 215
211 215 213 214 208 206 212 218 218 217 237 274 278 257 237 224 215 212 197 167 202 203 222 224 229 233 234 234 235 238 241 241 233 228 228 225 218 211 208 211 210 210 215
213 219 216 218 216 216 217 220 222 217 221 231 239 267 234 207 200 203 174 187 218 229 232 236 238 238 242 240 238 240 239 236 237 229 223 219 216 210 213 215 215 214 214
223 226 214 208 212 219 217 218 220 217 217 222 228 230 207 156 190 214 208 221 227 232 230 234 239 237 232 231 232 233 238 240 237 235 232 228 223 212 211 214 214 213 219
226 229 219 213 213 220 222 222 219 214 216 221 230 224 200 199 215 219 220 228 230 233 232 230 229 226 228 229 229 231 234 242 238 235 234 232 225 222 222 219 219 217 217
204 206 207 212 216 220 221 217 216 218 220 223 231 226 210 208 218 224 227 232 232 230 227 222 226 225 224 226 226 230 237 244 246 239 237 234 229 226 223 222 223 220 213
203 209 214 222 221 220 221 222 218 217 219 218 214 213 210 218 224 230 233 234 233 235 232 225 228 237 237 228 221 222 232 242 239 230 226 229 231 227 221 221 222 222 222
212 214 217 221 219 218 221 223 220 221 219 214 214 217 219 225 231 235 235 234 235 244 235 226 233 238 235 232 225 224 231 237 235 230 225 226 226 225 222 224 228 225 224
218 224 225 218 218 216 216 215 213 214 216 217 215 220 227 232 237 239 232 226 231 243 247 240 241 238 231 230 234 234 236 231 227 225 222 229 234 234 229 228 228 227 226
225 231 224 212 207 204 202 208 212 205 199 204 206 209 215 221 229 236 235 232 238 246 251 250 242 233 231 233 234 229 227 225 224 222 217 222 225 235 237 237 232 230 229
Height
1521 1523 1524 1524 1525 1525 1525 1526 1526 1526 1526 1526 1526 1526 1526 1526 1526 1526 1526 1525 1525 1525 1525 1525 1525 1525 1525 1525 1525 1524 1524 1524 1524 1524 1524 1524 1524 1524 1523 1523 1522 1521 1521
1519 1521 1521 1522 1523 1523 1523 1524 1524 1524 1524 1524 1525 1525 1525 1524 1524 1524 1524 1524 1523 1523 1523 1523 1523 1523 1523 1523 1522 1522 1522 1522 1522 1521 1522 1522 1522 1522 1521 1521 1520 1520 1519
1517 1518 1519 1520 1521 1521 1522 1522 1522 1523 1523 1523 1523 1523 1523 1523 1523 1523 1522 1522 1521 1521 1521 1521 1521 1521 1521 1521 1520 1520 1520 1520 1520 1520 1520 1520 1520 1520 1520 1519 1519 1518 1518
1515 1516 1517 1517 1518 1519 1520 1520 1521 1521 1521 1521 1522 1522 1522 1521 1521 1521 1520 1520 1519 1519 1519 1519 1519 1519 1519 1518 1518 1518 1518 1518 1518 1518 1518 1518 1518 1518 1518 1518 1518 1517 1517
1512 1513 1514 1516 1516 1517 1517 1518 1519 1519 1519 1519 1520 1520 1520 1520 1519 1519 1518 1518 1517 1517 1517 1517 1517 1516 1516 1516 1516 1516 1516 1516 1516 1516 1516 1516 1516 1516 1516 1516 1516 1516 1516
1510 1511 1512 1513 1514 1514 1515 1516 1516 1517 1517 1517 1517 1518 1517 1517 1517 1517 1516 1515 1515 1515 1514 1514 1514 1514 1514 1514 1514 1514 1515 1514 1514 1514 1514 1514 1514 1515 1515 1515 1515 1514 1514
1508 1509 1510 1511 1512 1512 1513 1513 1514 1514 1515 1515 1515 1515 1515 1515 1515 1514 1514 1513 1513 1512 1512 1512 1512 1512 1512 1512 1512 1512 1512 1512 1513 1513 1512 1512 1512 1513 1513 1513 1513 1513 1513
1506 1507 1507 1508 1509 1510 1510 1511 1511 1511 1512 1512 1513 1513 1513 1512 1512 1511 1511 1511 1510 1510 1510 1509 1509 1509 1510 1510 1510 1510 1510 1510 1510 1510 1510 1511 1511 1511 1511 1511 1511 1511 1512
1504 1505 1505 1505 1507 1507 1507 1508 1508 1509 1509 1510 1510 1510 1509 1509 1509 1509 1508 1508 1507 1507 1507 1507 1507 1507 1508 1508 1508 1507 1507 1508 1508 1508 1508 1508 1508 1509 1509 1509 1509 1509 1509
1502 1502 1503 1504 1504 1504 1505 1505 1506 1506 1507 1507 1507 1506 1506 1506 1506 1505 1505 1505 1504 1504 1504 1504 1505 1505 1505 1505 1505 1505 1505 1505 1505 1505 1506 1506 1506 1506 1506 1506 1507 1507 1507
1499 1500 1501 1501 1501 1502 1502 1502 1503 1503 1504 1504 1504 1503 1503 1503 1503 1503 1502 1502 1501 1501 1501 1501 1501 1501 1502 1502 1502 1501 1502 1502 1503 1503 1503 1503 1503 1504 1504 1504 1505 1505 1505
1496 1497 1498 1498 1499 1499 1499 1499 1500 1500 1500 1500 1500 1500 1500 1499 1499 1499 1499 1499 1498 1498 1497 1497 1498 1498 1498 1498 1498 1498 1499 1499 1499 1499 1499 1500 1500 1501 1501 1502 1502 1502 1503
1494 1494 1495 1495 1495 1496 1496 1495 1496 1497 1496 1496 1496 1496 1496 1496 1495 1495 1495 1495 1495 1494 1494 1494 1494 1494 1494 1494 1495 1495 1495 1495 1495 1495 1495 1496 1497 1497 1498 1499 1499 1499 1499
1491 1491 1492 1492 1492 1492 1493 1492 1492 1492 1492 1492 1492 1492 1492 1492 1491 1491 1491 1491 1491 1491 1490 1490 1490 1490 1490 1490 1490 1491 1491 1491 1491 1491 1491 1492 1492 1493 1494 1494 1495 1495 1495
1489 1489 1489 1489 1490 1490 1489 1489 1489 1489 1489 1489 1488 1488 1488 1488 1488 1487 1487 1487 1487 1487 1486 1486 1485 1485 1485 1485 1485 1486 1486 1487 1487 1487 1487 1487 1487 1488 1489 1490 1491 1491 1491
1486 1486 1486 1486 1486 1485 1485 1486 1486 1486 1486 1485 1485 1485 1485 1485 1484 1484 1483 1483 1483 1483 1482 1481 1480 1480 1480 1480 1481 1481 1482 1482 1482 1483 1482 1482 1483 1484 1485 1486 1487 1487 1487
1482 1482 1482 1482 1482 1482 1482 1482 1482 1482 1482 1481 1481 1481 1481 1481 1480 1480 1479 1479 1479 1478 1477 1476 1476 1476 1476 1476 1476 1476 1476 1477 1477 1477 1477 1477 1478 1479 1480 1481 1482 1482 1483
1479 1479 1479 1479 1478 1478 1478 1478 1478 1477 1477 1477 1477 1477 1477 1476 1476 1476 1475 1475 1473 1473 1473 1472 1472 1472 1472 1472 1472 1471 1471 1472 1472 1472 1472 1472 1473 1474 1475 1476 1477 1477 1478
1475 1475 1475 1475 1475 1474 1474 1474 1474 1474 1473 1473 1472 1472 1472 1472 1472 1472 1471 1470 1470 1469 1469 1469 1468 1468 1468 1468 1467 1467 1466 1466 1466 1466 1467 1467 1467 1468 1470 1471 1471 1472 1473
1471 1471 1471 1471 1471 1471 1470 1470 1470 1469 1469 1469 1468 1468 1468 1468 1467 1467 1466 1466 1466 1466 1465 1465 1465 1465 1464 1464 1463 1462 1462 1461 1461 1461 1462 1462 1463 1463 1464 1465 1466 1466 1467
1467 1467 1467 1467 1467 1467 1466 1466 1466 1465 1465 1464 1464 1464 1464 1464 1463 1463 1463 1463 1462 1462 1462 1461 1461 1460 1460 1459 1459 1458 1457 1456 1456 1456 1457 1457 1457 1458 1459 1460 1460 1461 1462
1463 1463 1463 1463 1463 1463 1462 1462 1462 1461 1461 1460 1460 1460 1460 1460 1460 1459 1459 1459 1459 1458 1458 1457 1456 1456 1456 1455 1455 1454 1453 1452 1452 1452 1452 1452 1452 1453 1454 1454 1455 1456 1456
1459 1459 1459 1459 1459 1458 1458 1458 1458 1457 1457 1457 1456 1456 1456 1456 1456 1456 1455 1455 1455 1454 1454 1453 1452 1452 1451 1451 1451 1450 1449 1448 1447 1447 1447 1447 1447 1448 1448 1449 1450 1450 1451
1456 1456 1456 1455 1455 1455 1454 1454 1454 1454 1453 1453 1453 1452 1452 1452 1452 1451 1451 1450 1450 1449 1449 1448 1448 1447 1447 1446 1446 1445 1444 1444 1443 1443 1442 1442 1442 1442 1443 1444 1444 1445 1445
1452 1452 1452 1452 1451 1451 1451 1451 1450 1450 1450 1449 1449 1448 1448 1448 1447 1447 1447 1446 1445 1445 1444 1444 1443 1443 1442 1442 1441 1440 1440 1439 1439 1438 1438 1437 1437 1437 1438 1438 1439 1439 1440
1449 1449 1449 1449 1449 1448 1448 1447 1447 1446 1446 1447 1446 1445 1445 1444 1443 1443 1443 1442 1441 1441 1440 1440 1439 1438 1438 1437 1436 1436 1435 1434 1434 1433 1433 1433 1432 1432 1433 1433 1433 1434 1435